Stanley, ID

9:04 AM MDT on August 17, 2017 (GMT -0600)
Stanley

Weather History for KSNT - April, 2013

Change the Weather History Date:

Saturday, April 20, 2013

  Actual Average Record
Temperature  
Mean Temperature 37 °F 35 °F  
Max Temperature 48 °F 49 °F 71 °F (1994)
Min Temperature 25 °F 21 °F -8 °F (1927)
Degree Days  
Heating Degree Days 28 30  
Month to date heating degree days 643 658  
Since 1 July heating degree days 8927 9376  
Cooling Degree Days 0 0  
Month to date cooling degree days 0 0  
Year to date cooling degree days 0 0  
Moisture  
Dew Point 27 °F    
Average Humidity 69    
Maximum Humidity 100    
Minimum Humidity 38    
Precipitation  
Precipitation 0.03 in 0.05 in 0.45 in (1965)
Month to date precipitation 1.41 1.14  
Year to date precipitation 4.24 6.26  
Sea Level Pressure  
Sea Level Pressure 29.99 in    
Wind  
Wind Speed 5 mph (NW)    
Max Wind Speed 15 mph    
Max Gust Speed 26 mph    
T = Trace of Precipitation, MM = Missing Value Source: NWS Daily Summary

Daily Weather History Graph

Daily Weather History Graph

Search for Another Location

Airport or City:

Trip Planner

Search our weather history database for the weather conditions in past years. The results will help you decide how hot, cold, wet, or windy it might be!

Date:

Astronomy

Apr. 20, 2013 Rise Set
Actual Time 6:47 AM MDT 8:30 PM MDT
Civil Twilight 6:16 AM MDT 9:01 PM MDT
Nautical Twilight 5:39 AM MDT 9:38 PM MDT
Astronomical Twilight 4:59 AM MDT 10:19 PM MDT
Moon 3:07 PM MDT (4/20) 3:50 AM MDT (4/20)
Length of Visible Light 14h 44m
Length of Day
13h 43m
Waxing Gibbous, 71% of the Moon is Illuminated
Apr 20
Waxing Gibbous
Apr 25
Full
May 2
Last Quarter
May 9
New
May 17
First Quarter

Hourly Weather History & Observations

Time (MDT) Temp. Windchill Dew Point Humidity Pressure Visibility Wind Dir Wind Speed Gust Speed Precip Events Conditions
12:51 AM 34.0 °F - 32.0 °F 92% 29.92 in - Calm Calm - N/A   Unknown
1:51 AM 34.0 °F - 30.9 °F 89% 29.94 in - Calm Calm - N/A   Unknown
2:51 AM 34.0 °F - 30.9 °F 89% 29.93 in - Calm Calm - N/A   Unknown
3:51 AM 32.0 °F - 30.9 °F 96% 29.94 in - Calm Calm - N/A   Unknown
4:51 AM 33.1 °F - 30.9 °F 92% 29.94 in - Calm Calm - N/A   Unknown
5:51 AM 32.0 °F - 30.0 °F 92% 29.95 in - Calm Calm - N/A   Unknown
6:51 AM 32.0 °F - 30.9 °F 96% 29.96 in - Calm Calm - 0.02 in   Unknown
7:51 AM 32.0 °F - 32.0 °F 100% 29.99 in - Calm Calm - 0.01 in   Unknown
8:51 AM 34.0 °F - 30.9 °F 89% 30.01 in - Calm Calm - N/A   Unknown
9:51 AM 39.9 °F 34.5 °F 32.0 °F 73% 29.99 in - North 8.1 mph - N/A   Unknown
10:51 AM 41.0 °F 34.3 °F 28.0 °F 60% 30.00 in - North 11.5 mph 18.4 mph N/A   Unknown
11:51 AM 43.0 °F 36.8 °F 26.1 °F 51% 29.99 in - NNW 11.5 mph 18.4 mph N/A   Unknown
12:51 PM 46.0 °F 41.4 °F 23.0 °F 40% 29.99 in - NNW 9.2 mph 26.5 mph N/A   Unknown
1:51 PM 46.9 °F - 23.0 °F 39% 29.96 in - North 8.1 mph - N/A   Unknown
2:51 PM 46.0 °F 41.0 °F 24.1 °F 42% 29.97 in - WNW 10.4 mph 17.3 mph N/A   Unknown
3:51 PM 45.0 °F 40.6 °F 28.0 °F 52% 29.99 in - NNW 8.1 mph 16.1 mph N/A   Unknown
4:51 PM 45.0 °F 40.1 °F 26.1 °F 48% 29.98 in - NNW 9.2 mph 23.0 mph N/A   Unknown
5:51 PM 45.0 °F 40.1 °F 23.0 °F 42% 30.00 in - West 9.2 mph 16.1 mph N/A   Unknown
6:51 PM 42.1 °F 39.2 °F 23.0 °F 47% 30.01 in - Variable 4.6 mph - N/A   Unknown
7:51 PM 41.0 °F - 23.0 °F 49% 30.02 in - Calm Calm - N/A   Unknown
8:51 PM 37.9 °F 33.5 °F 23.0 °F 55% 30.04 in - NW 5.8 mph - N/A   Unknown
9:51 PM 33.1 °F 30.0 °F 23.0 °F 66% 30.04 in - SSW 3.5 mph - N/A   Unknown
10:51 PM 28.9 °F 25.2 °F 23.0 °F 78% 30.06 in - South 3.5 mph - N/A   Unknown
11:51 PM 27.0 °F - 23.0 °F 85% 30.06 in - Calm Calm - N/A   Unknown